Regional Weather Roundup
Issued by NWS Cleveland, OH

Home | Current Version | Previous Version | Graphics & Text | Print | Product List | Glossary On
Versions: 1 2 3 4 5 6 7 8 9 10 11 12 13 14 15 16 17 18 19 20 21 22 23 24 25 26 27 28 29 30 31 32 33 34 35 36 37 38 39 40 41 42 43 44 45 46 47 48 49 50
000
ASUS41 KCLE 201402
RWRCLE
OHIO REGIONAL WEATHER ROUNDUP
NATIONAL WEATHER SERVICE CLEVELAND, OH
900 AM EST MON FEB 20 2017

NOTE: "FAIR" INDICATES FEW OR NO CLOUDS BELOW 12,000 FEET WITH NO
SIGNIFICANT WEATHER AND/OR OBSTRUCTIONS TO VISIBILITY.

OHZ001>008-015>018-024>027-034-035-043-044-201500-
   NORTHWEST OHIO

CITY           SKY/WX    TMP DP  RH WIND       PRES   REMARKS
DEFIANCE       CLOUDY    38  34  85 E6        30.26R
FINDLAY        MOSUNNY   42  36  79 E3        30.25R
TOLEDO EXPRESS CLOUDY    40  36  86 E6        30.27R
TOLEDO EXEC    MOSUNNY   40  35  83 E6        30.28R
LIMA           CLOUDY    43  43 100 S5        30.25R FOG
$$

OHZ009>014-019>023-028>033-038-089-201500-
   NORTHEAST OHIO

CITY           SKY/WX    TMP DP  RH WIND       PRES   REMARKS
CLE-HOPKINS    PTSUNNY   44  35  70 NE3       30.31R
CLE-LAKEFRONT  MOSUNNY   39  34  82 NE3       30.29R
CUY CO. ARPT   PTSUNNY   43  37  81 E6        30.30R
LORAIN-ELYRIA  CLOUDY    39  33  79 E5        30.29R
ASHTABULA      MOSUNNY   38  34  85 E3        30.30R
AKRON-CANTON   CLOUDY    40  36  86 E8        30.27S FOG
WOOSTER        MOSUNNY   36  36 100 CALM      30.28R FOG
MANSFIELD      CLOUDY    47  43  86 CALM      30.25S
YOUNGSTOWN     PTSUNNY   40  33  76 NE5       30.28R
$$

OHZ042-051>053-060>062-070>072-077>081-201500-
  SOUTHWEST OHIO

CITY           SKY/WX    TMP DP  RH WIND       PRES   REMARKS
CINC-COVINGTON FOG       41  41 100 E5        30.24S VSB 1/8
CINC-LUNKEN    FOG       40  40 100 NE5       30.27S VSB<1/4
HAMILTON       FOG       42  42 100 E5        30.27R VSB<1/4
DAYTON         FOG       40  40 100 S5        30.26R VSB 1/16
WRIGHT-PAT AFB NOT AVBL
DAYTON GENERAL FOG       42  42 100 CALM      30.25R VSB<1/4
WILMINGTON     FOG       40  40 100 CALM      30.26R VSB 1/4
$$

OHZ036-037-039>041-045>050-054>059-063>069-073>076-082>088-201500-
  CENTRAL AND SOUTHEAST OHIO

CITY           SKY/WX    TMP DP  RH WIND       PRES   REMARKS
COLUMBUS       FOG       39  38  96 S3        30.27R VSB 1/8
OSU AIRPORT    FOG       39  39 100 S3        30.27R VSB<1/4
BOLTON FIELD   FOG       37  37 100 S5        30.27R VSB 1/4
RICKENBACK AFB FOG       37  37 100 CALM      30.28R VSB<1/4
NEWARK         FOG       39  38  96 CALM      30.27R VSB<1/4
MARION         FOG       39  38  96 CALM      30.26S VSB<1/4
LANCASTER      FOG       40  39  97 CALM      30.29R VSB<1/4
ZANESVILLE     FOG       40  38  93 CALM      30.28R VSB<1/4
NEW PHILLY     NOT AVBL
$$




USA.gov is the U.S. government's official web portal to all federal, state and local government web resources and services.